Location: Borojevi?i
(45.0486°N, 16.2297°E)
Time: 04:43:37
(UTC+00:00)

Cosmos 2219 Rocket - Pass Details

Date: 08 August 2020
Orbit: 826 x 848 km, 71.0° (Epoch: 19 September)

Event Time Altitude Azimuth Distance (km) Brightness Sun altitude
Rises 21:47:51 0° 340° (NNW) 3,414 6.7 -26.9°
Reaches altitude 10° 21:50:39 10° 352° (N) 2,478 5.6 -27.1°
Maximum altitude 21:55:33 29° 51° (NE) 1,517 3.6 -27.4°
Enters shadow 21:57:02 26° 77° (ENE) 1,629 3.6 -27.5°
